Time,TemperatureF,DewpointF,PressureIn,WindDirection,WindDirectionDegrees,WindSpeedMPH,WindSpeedGustMPH,Humidity,HourlyPrecipIn,Conditions,Clouds,dailyrainin,SoftwareType,DateUTC
2017-07-20 00:06:00,69.3,69.0,29.87,NNW,327,0.0,-999.0,97,-99.99,,,1.38,weatherlink.com 1.10,2017-07-20 05:06:00,
2017-07-20 00:21:00,69.4,69.0,29.87,NNW,327,0.0,-999.0,97,-99.99,,,0.00,weatherlink.com 1.10,2017-07-20 05:21:00,
2017-07-20 00:36:00,69.4,69.0,29.86,NNW,327,0.0,-999.0,97,-99.99,,,0.00,weatherlink.com 1.10,2017-07-20 05:36:00,
2017-07-20 00:51:00,69.4,69.0,29.85,NNW,327,0.0,-999.0,97,-99.99,,,0.00,weatherlink.com 1.10,2017-07-20 05:51:00,
2017-07-20 01:06:00,69.1,68.0,29.84,NNW,327,0.0,-999.0,97,-99.99,,,0.00,weatherlink.com 1.10,2017-07-20 06:06:00,
2017-07-20 01:21:00,68.9,68.0,29.85,NNW,327,0.0,-999.0,97,-99.99,,,0.00,weatherlink.com 1.10,2017-07-20 06:21:00,
2017-07-20 01:36:00,68.6,68.0,29.85,WNW,297,0.0,-999.0,97,-99.99,,,0.00,weatherlink.com 1.10,2017-07-20 06:36:00,
2017-07-20 01:51:00,68.4,68.0,29.83,WNW,297,0.0,-999.0,97,-99.99,,,0.00,weatherlink.com 1.10,2017-07-20 06:51:00,
2017-07-20 02:06:00,68.3,68.0,29.84,WNW,297,0.0,-999.0,97,-99.99,,,0.00,weatherlink.com 1.10,2017-07-20 07:06:00,
2017-07-20 02:21:00,68.1,67.0,29.85,WNW,297,0.0,-999.0,97,-99.99,,,0.00,weatherlink.com 1.10,2017-07-20 07:21:00,
2017-07-20 02:36:00,68.3,68.0,29.85,WNW,297,0.0,-999.0,97,-99.99,,,0.00,weatherlink.com 1.10,2017-07-20 07:36:00,
2017-07-20 02:51:00,68.3,68.0,29.86,WNW,297,0.0,-999.0,97,-99.99,,,0.00,weatherlink.com 1.10,2017-07-20 07:51:00,
2017-07-20 03:06:00,67.9,67.0,29.86,WNW,297,0.0,-999.0,97,-99.99,,,0.00,weatherlink.com 1.10,2017-07-20 08:06:00,
2017-07-20 03:21:00,67.8,67.0,29.88,WNW,297,0.0,-999.0,97,-99.99,,,0.00,weatherlink.com 1.10,2017-07-20 08:21:00,
2017-07-20 03:36:00,67.4,67.0,29.87,WNW,297,0.0,-999.0,98,-99.99,,,0.00,weatherlink.com 1.10,2017-07-20 08:36:00,
2017-07-20 03:51:00,67.6,67.0,29.87,WNW,297,0.0,-999.0,98,-99.99,,,0.00,weatherlink.com 1.10,2017-07-20 08:51:00,
2017-07-20 04:07:00,67.4,67.0,29.86,WNW,297,0.0,-999.0,98,-99.99,,,0.00,weatherlink.com 1.10,2017-07-20 09:07:00,
2017-07-20 04:21:00,67.1,67.0,29.87,WNW,297,0.0,-999.0,98,-99.99,,,0.00,weatherlink.com 1.10,2017-07-20 09:21:00,
2017-07-20 04:36:00,67.3,67.0,29.87,SSE,154,0.0,-999.0,98,-99.99,,,0.01,weatherlink.com 1.10,2017-07-20 09:36:00,
2017-07-20 04:51:00,67.1,67.0,29.87,SSE,154,0.0,-999.0,98,-99.99,,,0.01,weatherlink.com 1.10,2017-07-20 09:51:00,
2017-07-20 05:07:00,67.1,67.0,29.88,SSE,154,0.0,-999.0,98,-99.99,,,0.01,weatherlink.com 1.10,2017-07-20 10:07:00,
2017-07-20 05:22:00,66.9,66.0,29.89,SSE,154,0.0,-999.0,98,-99.99,,,0.01,weatherlink.com 1.10,2017-07-20 10:22:00,
2017-07-20 05:37:00,66.8,66.0,29.90,SSE,154,0.0,-999.0,98,-99.99,,,0.01,weatherlink.com 1.10,2017-07-20 10:37:00,
2017-07-20 05:52:00,66.4,66.0,29.91,SSE,154,0.0,-999.0,98,-99.99,,,0.01,weatherlink.com 1.10,2017-07-20 10:52:00,
2017-07-20 06:07:00,66.4,66.0,29.91,SSE,154,0.0,-999.0,98,-99.99,,,0.01,weatherlink.com 1.10,2017-07-20 11:07:00,
2017-07-20 06:22:00,66.6,66.0,29.90,SSE,154,0.0,-999.0,98,-99.99,,,0.01,weatherlink.com 1.10,2017-07-20 11:22:00,
2017-07-20 06:37:00,67.3,67.0,29.91,SSE,154,0.0,-999.0,98,-99.99,,,0.01,weatherlink.com 1.10,2017-07-20 11:37:00,
2017-07-20 06:52:00,67.8,67.0,29.92,SSE,154,0.0,-999.0,98,-99.99,,,0.01,weatherlink.com 1.10,2017-07-20 11:52:00,
2017-07-20 07:07:00,67.9,67.0,29.93,SSE,154,0.0,-999.0,98,-99.99,,,0.01,weatherlink.com 1.10,2017-07-20 12:07:00,
2017-07-20 07:22:00,68.4,68.0,29.93,SSE,154,0.0,-999.0,98,-99.99,,,0.01,weatherlink.com 1.10,2017-07-20 12:22:00,
2017-07-20 07:37:00,68.9,69.0,29.93,SSE,154,0.0,-999.0,99,-99.99,,,0.01,weatherlink.com 1.10,2017-07-20 12:37:00,
2017-07-20 07:52:00,69.6,69.0,29.93,SSE,154,0.0,-999.0,99,-99.99,,,0.01,weatherlink.com 1.10,2017-07-20 12:52:00,
2017-07-20 08:07:00,69.8,69.0,29.94,SSE,154,0.0,-999.0,98,-99.99,,,0.01,weatherlink.com 1.10,2017-07-20 13:07:00,
2017-07-20 08:22:00,70.1,70.0,29.94,SSE,154,0.0,-999.0,99,-99.99,,,0.01,weatherlink.com 1.10,2017-07-20 13:22:00,
2017-07-20 08:37:00,70.4,70.0,29.94,SSE,154,0.0,-999.0,99,-99.99,,,0.01,weatherlink.com 1.10,2017-07-20 13:37:00,
2017-07-20 08:52:00,70.9,70.0,29.93,SSE,152,0.0,-999.0,98,-99.99,,,0.01,weatherlink.com 1.10,2017-07-20 13:52:00,
2017-07-20 09:07:00,71.8,71.0,29.94,SSE,152,0.0,-999.0,98,-99.99,,,0.01,weatherlink.com 1.10,2017-07-20 14:07:00,
2017-07-20 09:22:00,71.3,71.0,29.94,SSE,152,0.0,-999.0,98,-99.99,,,0.01,weatherlink.com 1.10,2017-07-20 14:22:00,
2017-07-20 09:37:00,72.3,72.0,29.94,SSE,152,0.0,-999.0,98,-99.99,,,0.01,weatherlink.com 1.10,2017-07-20 14:37:00,
2017-07-20 09:52:00,72.8,72.0,29.94,SSE,152,0.0,-999.0,98,-99.99,,,0.01,weatherlink.com 1.10,2017-07-20 14:52:00,
2017-07-20 10:07:00,73.7,73.0,29.95,SSE,153,0.0,-999.0,97,-99.99,,,0.01,weatherlink.com 1.10,2017-07-20 15:07:00,
2017-07-20 10:22:00,75.1,74.0,29.95,SSE,153,0.0,-999.0,96,-99.99,,,0.01,weatherlink.com 1.10,2017-07-20 15:22:00,
2017-07-20 10:37:00,76.1,74.0,29.95,SSE,153,0.0,-999.0,93,-99.99,,,0.01,weatherlink.com 1.10,2017-07-20 15:37:00,
2017-07-20 10:52:00,76.5,73.0,29.95,SSE,153,0.0,-999.0,89,-99.99,,,0.01,weatherlink.com 1.10,2017-07-20 15:52:00,
2017-07-20 11:07:00,76.5,71.0,29.95,SSE,153,0.0,-999.0,83,-99.99,,,0.01,weatherlink.com 1.10,2017-07-20 16:07:00,
2017-07-20 11:22:00,77.2,71.0,29.95,SSE,151,0.0,-999.0,81,-99.99,,,0.01,weatherlink.com 1.10,2017-07-20 16:22:00,
2017-07-20 11:37:00,77.4,70.0,29.95,SSE,151,0.0,-999.0,78,-99.99,,,0.01,weatherlink.com 1.10,2017-07-20 16:37:00,
2017-07-20 11:52:00,77.7,71.0,29.94,SSE,151,0.0,-999.0,79,-99.99,,,0.01,weatherlink.com 1.10,2017-07-20 16:52:00,
2017-07-20 12:07:00,78.3,71.0,29.95,ENE,66,0.0,-999.0,79,-99.99,,,0.01,weatherlink.com 1.10,2017-07-20 17:07:00,
2017-07-20 12:22:00,79.0,70.0,29.96,ENE,67,0.0,-999.0,75,-99.99,,,0.01,weatherlink.com 1.10,2017-07-20 17:22:00,
2017-07-20 12:37:00,78.8,70.0,29.95,ENE,67,0.0,-999.0,75,-99.99,,,0.01,weatherlink.com 1.10,2017-07-20 17:37:00,
2017-07-20 12:52:00,80.5,71.0,29.95,ENE,68,0.0,-999.0,72,-99.99,,,0.01,weatherlink.com 1.10,2017-07-20 17:52:00,
2017-07-20 13:08:00,81.1,71.0,29.94,South,179,0.0,-999.0,71,-99.99,,,0.01,weatherlink.com 1.10,2017-07-20 18:08:00,
2017-07-20 13:22:00,81.4,71.0,29.94,South,179,0.0,-999.0,71,-99.99,,,0.01,weatherlink.com 1.10,2017-07-20 18:22:00,
2017-07-20 13:37:00,82.2,71.0,29.94,SSW,192,0.0,-999.0,68,-99.99,,,0.01,weatherlink.com 1.10,2017-07-20 18:37:00,
2017-07-20 13:52:00,82.0,70.0,29.94,SSW,194,0.0,-999.0,68,-99.99,,,0.01,weatherlink.com 1.10,2017-07-20 18:52:00,
2017-07-20 14:07:00,82.6,70.0,29.94,SSW,194,0.0,-999.0,66,-99.99,,,0.01,weatherlink.com 1.10,2017-07-20 19:07:00,
2017-07-20 14:22:00,82.8,70.0,29.94,SSW,197,0.0,-999.0,66,-99.99,,,0.01,weatherlink.com 1.10,2017-07-20 19:22:00,
2017-07-20 14:38:00,83.4,70.0,29.94,East,82,0.0,-999.0,65,-99.99,,,0.01,weatherlink.com 1.10,2017-07-20 19:38:00,
2017-07-20 14:52:00,84.0,70.0,29.94,NE,35,0.0,-999.0,62,-99.99,,,0.01,weatherlink.com 1.10,2017-07-20 19:52:00,
2017-07-20 15:08:00,84.3,68.0,29.94,NE,35,0.0,-999.0,59,-99.99,,,0.01,weatherlink.com 1.10,2017-07-20 20:08:00,
2017-07-20 15:22:00,84.1,70.0,29.94,SE,132,0.0,-999.0,62,-99.99,,,0.01,weatherlink.com 1.10,2017-07-20 20:22:00,
2017-07-20 15:37:00,85.3,72.0,29.94,SE,132,0.0,-999.0,64,-99.99,,,0.01,weatherlink.com 1.10,2017-07-20 20:37:00,
2017-07-20 15:53:00,85.5,70.0,29.94,SW,215,0.0,-999.0,60,-99.99,,,0.01,weatherlink.com 1.10,2017-07-20 20:53:00,